Weather History for Hagerstown, MD

Change the Weather History Date:

Sunday, March 30, 2014

  Actual Average Record
Temperature  
Mean Temperature 40 °F -  
Max Temperature 46 °F 56 °F 87 °F (1998)
Min Temperature 34 °F 37 °F 27 °F (2008)
Degree Days  
Heating Degree Days 25    
Month to date heating degree days 845  
Moisture  
Dew Point 37 °F    
Average Humidity 85    
Maximum Humidity 100    
Minimum Humidity 70    
Precipitation  
Precipitation 0.60 in - - ()
Month to date precipitation 1.67  
Year to date precipitation 5.45  
Sea Level Pressure  
Sea Level Pressure 29.69 in    
Wind  
Wind Speed 16 mph (NW)    
Max Wind Speed 25 mph    
Max Gust Speed 33 mph    
Visibility 7 miles    
Events Rain , Snow    
Averages and records for this station are not official NWS values.
T = Trace of Precipitation, MM = Missing Value Source: NWS Daily Summary

Daily Weather History Graph

Daily Weather History Graph

Search for Another Location

Airport:

Trip Planner

Search our weather history database for the weather conditions in past years. The results will help you decide how hot, cold, wet, or windy it might be!

Date:

Astronomy

Mar. 30, 2014 Rise Set
Actual Time 6:58 AM EDT 7:33 PM EDT
Civil Twilight 6:31 AM EDT 8:00 PM EDT
Nautical Twilight 5:59 AM EDT 8:32 PM EDT
Astronomical Twilight 5:26 AM EDT 9:05 PM EDT
Moon 6:42 AM EDT (3/30) 7:43 PM EDT (3/30)
Length of Visible Light 13h 28m
Length of Day
12h 34m
Waning Crescent, 0% of the Moon is Illuminated
Mar 30
Waning Crescent
Mar 30
New
Apr 7
First Quarter
Apr 15
Full
Apr 22
Last Quarter

Hourly Weather History & Observations

Time (EDT) Temp. Windchill Dew Point Humidity Pressure Visibility Wind Dir Wind Speed Gust Speed Precip Events Conditions
1:10 AM 46.0 °F 41.4 °F 45.0 °F 96% 29.61 in 2.5 mi WNW 9.2 mph - N/A   Mist
1:23 AM 46.0 °F 40.6 °F 45.0 °F 96% 29.62 in 1.5 mi WNW 11.5 mph - N/A Rain Light Rain
1:32 AM 45.0 °F 39.3 °F 45.0 °F 100% 29.62 in 1.8 mi WNW 11.5 mph - N/A Rain Light Rain
1:45 AM 45.0 °F 38.5 °F 44.1 °F 97% 29.60 in 2.5 mi NW 13.8 mph - N/A Rain Light Rain
1:53 AM 45.0 °F 38.2 °F 44.1 °F 97% 29.64 in 2.5 mi NW 15.0 mph - N/A Rain Light Rain
2:05 AM 45.0 °F 37.9 °F 44.1 °F 97% 29.59 in 3.0 mi NW 16.1 mph - 0.01 in Rain Light Rain
2:53 AM 45.0 °F 39.7 °F 44.1 °F 97% 29.63 in 6.0 mi NW 10.4 mph - 0.01 in Rain Light Rain
3:01 AM 45.0 °F 40.6 °F 44.1 °F 97% 29.60 in 8.0 mi NW 8.1 mph - 0.00 in   Overcast
3:53 AM 44.1 °F 38.1 °F 43.0 °F 96% 29.62 in 10.0 mi NW 11.5 mph - 0.00 in   Overcast
4:53 AM 43.0 °F 35.4 °F 39.9 °F 89% 29.63 in 8.0 mi NW 16.1 mph 26.5 mph 0.02 in Rain Light Rain
5:00 AM 43.0 °F 35.7 °F 39.9 °F 89% 29.59 in 7.0 mi NNW 15.0 mph - 0.01 in Rain Light Rain
5:20 AM 42.1 °F 34.5 °F 39.9 °F 92% 29.59 in 3.0 mi NW 15.0 mph - 0.06 in Rain Heavy Rain
5:42 AM 41.0 °F 34.3 °F 39.9 °F 96% 29.59 in 4.0 mi NW 11.5 mph - 0.15 in Rain Rain
5:53 AM 41.0 °F 33.5 °F 39.0 °F 93% 29.63 in 5.0 mi NW 13.8 mph - 0.17 in Rain Light Rain
6:08 AM 39.9 °F 31.8 °F 39.0 °F 97% 29.60 in 7.0 mi WNW 15.0 mph - 0.02 in Rain Light Rain
6:40 AM 39.9 °F 32.1 °F 37.9 °F 93% 29.61 in 10.0 mi NW 13.8 mph - 0.03 in Rain Light Rain
6:53 AM 39.9 °F 32.1 °F 37.0 °F 89% 29.66 in 10.0 mi NW 13.8 mph - 0.04 in Rain Light Rain
7:53 AM 39.0 °F 30.6 °F 37.0 °F 93% 29.68 in 4.0 mi NW 15.0 mph - 0.08 in Rain Rain
8:53 AM 37.9 °F 28.9 °F 36.0 °F 93% 29.71 in 8.0 mi NW 16.1 mph - 0.07 in Rain Light Rain
9:53 AM 37.0 °F 27.4 °F 34.0 °F 89% 29.73 in 10.0 mi NW 17.3 mph - 0.02 in   Overcast
10:53 AM 37.0 °F 26.7 °F 33.1 °F 86% 29.74 in 10.0 mi NW 19.6 mph - 0.00 in   Overcast
11:53 AM 37.0 °F 27.0 °F 32.0 °F 82% 29.74 in 8.0 mi NNW 18.4 mph - 0.02 in Rain Light Rain
12:27 PM 36.0 °F 27.5 °F 32.0 °F 86% 29.69 in 2.5 mi NNW 12.7 mph - 0.04 in Snow Light Snow
12:38 PM 35.1 °F 25.5 °F 32.0 °F 89% 29.69 in 3.0 mi NNW 15.0 mph - 0.06 in Snow Light Snow
12:53 PM 35.1 °F 27.9 °F 32.0 °F 89% 29.73 in 5.0 mi NNW 9.2 mph - 0.07 in Snow Light Snow
1:03 PM 36.0 °F 28.0 °F 33.1 °F 89% 29.69 in 4.0 mi NNW 11.5 mph - 0.01 in Snow Light Snow
1:19 PM 36.0 °F 27.1 °F 32.0 °F 86% 29.69 in 4.0 mi NNW 13.8 mph 24.2 mph 0.03 in Snow Light Snow
1:53 PM 37.0 °F 27.7 °F 33.1 °F 86% 29.73 in 9.0 mi NW 16.1 mph - 0.05 in   Overcast
2:53 PM 37.9 °F 29.6 °F 33.1 °F 83% 29.73 in 10.0 mi NNW 13.8 mph - 0.01 in Rain Light Rain
3:13 PM 39.0 °F 30.6 °F 33.1 °F 79% 29.69 in 10.0 mi NW 15.0 mph - 0.00 in   Overcast
3:24 PM 39.0 °F 31.4 °F 33.1 °F 79% 29.69 in 10.0 mi NNW 12.7 mph - 0.00 in Rain Light Rain
3:53 PM 41.0 °F 32.5 °F 33.1 °F 73% 29.73 in 10.0 mi NNW 17.3 mph - 0.01 in   Overcast
4:36 PM 41.0 °F 32.2 °F 33.1 °F 73% 29.70 in 10.0 mi NNW 18.4 mph 29.9 mph N/A   Overcast
4:53 PM 42.1 °F 33.1 °F 33.1 °F 70% 29.75 in 10.0 mi NW 20.7 mph 32.2 mph N/A   Overcast
5:53 PM 43.0 °F 33.5 °F 33.1 °F 68% 29.77 in 10.0 mi NNW 24.2 mph 36.8 mph N/A   Overcast
6:53 PM 42.1 °F 32.1 °F 33.1 °F 70% 29.80 in 10.0 mi NNW 25.3 mph 36.8 mph N/A   Overcast
7:53 PM 42.1 °F 31.9 °F 32.0 °F 67% 29.83 in 10.0 mi NNW 26.5 mph 36.8 mph N/A   Overcast
8:53 PM 43.0 °F 32.9 °F 32.0 °F 65% 29.86 in 10.0 mi NNW 27.6 mph 38.0 mph N/A   Overcast
9:53 PM 42.1 °F 32.6 °F 30.9 °F 65% 29.87 in 10.0 mi NNW 23.0 mph 33.4 mph N/A   Mostly Cloudy
10:53 PM 42.1 °F 30.8 °F 30.9 °F 65% 29.86 in 10.0 mi NNW 33.4 mph 41.4 mph N/A   Clear
11:53 PM 43.0 °F 34.0 °F 30.0 °F 60% 29.90 in 10.0 mi NNW 21.9 mph 33.4 mph N/A   Clear